デニング-藤川彗星

72P/Denning-Fujikawa (2014)

English version
Home page
Updated on December 24, 2014

---------------------------------------------------------------------

・ プロフィール

検出日 2014年6月17日
検出光度 16.8等
検出者 Hidetaka Sato (Tokyo, Japan)

・ 写真集

・ 軌道要素

Epoch 2014 July 2.0 TT = JDT 2456840.5
T 2014 July 11.62907 TT                                 MPC
q   0.7841523            (2000.0)            P               Q
n   0.10922578     Peri.  337.83984     +0.96763834     -0.23420748
a   4.3343032      Node    36.11656     +0.24876420     +0.82291922
e   0.8190823      Incl.    9.16963     +0.04233697     +0.51763965
P   9.02
From 26 observations 1881 Oct. 19-2014 June 18, mean residual 1".6.
     Nongravitational parameters A1 = -0.06, A2 = +0.0240.

・ 星図

・ 光度変化

        m1 = 17.5 + 5 logΔ + 23.0 log r

---------------------------------------------------------------------

軌道要素はM.P.E.C. 2014-M11に掲載されたものです。
星図はステラナビゲータ Ver.8 (アストロアーツ) で作成したものです。
光度グラフはComet for Windowsで作成したものです。

---------------------------------------------------------------------

Copyright(C) Seiichi Yoshida (comet@aerith.net). All rights reserved.